Regional Weather Roundup
Issued by NWS Green Bay, WI

Home | Current Version | Previous Version | Graphics & Text | Print | Product List | Glossary Off
Versions: 1 2 3 4 5 6 7 8 9 10 11 12 13 14 15 16 17 18 19 20 21 22 23 24 25 26 27 28 29 30 31 32 33 34 35 36 37 38 39 40 41 42 43 44 45 46 47 48 49 50

000
ASUS43 KGRB 290611
RWRGRB

NORTH-CENTRAL AND NORTHEAST WISCONSIN REGIONAL WEATHER ROUNDUP
NATIONAL WEATHER SERVICE GREEN BAY WI
100 AM CDT SUN MAY 29 2016

WIZ005-009-010>012-018-019-290700-
NORTH CENTRAL WISCONSIN

CITY           SKY/WX    TMP DP  RH WIND       PRES   REMARKS
IRONWOOD       CLOUDY    59  59 100 CALM      29.75S
MANITOWISH WTR NOT AVBL
ARBOR VITAE    MOCLDY    62  60  94 E5        29.82F
EAGLE RIVER      N/A     63  63  99 CALM      29.83S
LAND O LAKES   CLOUDY    61  61  98 CALM      29.84F
RHINELANDER    CLOUDY    64  62  93 SW3       29.83F
PHILLIPS       CLOUDY    60  60 100 SE3       29.80F
ANTIGO         CLOUDY    62  62  99 S12       29.86R
TOMAHAWK       CLOUDY    61  59  94 CALM      29.83S
MERRILL        CLOUDY    64  63  97 S5        29.84S
$$

WIZ013-073-290700-
NORTHEAST WISCONSIN

CITY           SKY/WX    TMP DP  RH WIND       PRES   REMARKS
IRON MOUNTAIN  CLOUDY    65  61  87 S8        29.83S
MARINETTE      CLOUDY    64  61  88 SW13      29.86R
OCONTO         CLOUDY    64  64 100 S5        29.86R
$$

WIZ017-030-035>037-045-290700-
CENTRAL WISCONSIN

CITY           SKY/WX    TMP DP  RH WIND       PRES   REMARKS
MEDFORD        RAIN      61  61 100 SW5       29.83S
WAUSAU         CLOUDY    66  61  84 S9        29.83R
MOSINEE        CLOUDY    63  61  94 S14       29.86R
MARSHFIELD     CLOUDY    63  60  90 SW8       29.84R
WISC RAPIDS    CLOUDY    65  60  84 S6        29.87S
STEVENS POINT  CLOUDY    63  60  90 S12       29.86S
WAUPACA        CLOUDY    66  65  97 S7        29.87S
SHAWANO        CLOUDY    65  62  88 S3        29.86S
CLINTONVILLE   CLOUDY    63  61  94 S8        29.86S
WAUTOMA        MOCLDY    65  63  93 S3        29.88R
$$

WIZ038-039-048-051-290700-
FOX VALLEY

CITY           SKY/WX    TMP DP  RH WIND       PRES   REMARKS
NWS GREEN BAY  CLOUDY    65  61  87 S6        29.87R
APPLETON       CLOUDY    64  63  94 S10       29.86F
OSHKOSH        CLOUDY    64  61  90 S10       29.88S
FOND DU LAC    CLOUDY    65  62  90 S7        29.89F
$$

WIZ022-050-052-290700-
EAST CENTRAL WISCONSIN

CITY           SKY/WX    TMP DP  RH WIND       PRES   REMARKS
EPHRAIM        FAIR      63  59  87 S9        29.85R
STURGEON BAY   NOT AVBL
MANITOWOC      CLOUDY    63  60  90 SW10      29.89F
SHEBOYGAN      LGT RAIN  63  61  93 S7        29.90F
$$

LMZ563-521-522-541>543-290700-
LAKESHORE

STATION/POSITION TIME  TEMP    WIND        PRES    VSBY  WAVE
                       AIR SEA DIR/SP/G                  HT/PER
                 (UTC) (F)     (DEG/KT/KT) (MB)    (MI)  (FT/S)
SHEBOYGAN LKSHOR 0600   59     210/  7/  8 1012.4F
KEWAUNEE LKSHORE 0500   54     180/ 12/ 14 1011.5F
ALGOMA MARINA    0517          210/ 13/ 14   N/A
NORTHPORT PIER   0520   61     140/  6/ 22 1010.8F
N MID LAKE BUOY  0550   51 46  170/ 10/ 12 1010.8F         3/ 5
SISTER BAY LKSHO 0535   64     190/ 15/ 17   N/A
CHAMBERS ISLAND  0540   63     160/  5/  9 1010.8S
MENOMINEE LKSHOR 0500   64     170/  5/  9 1009.6F
$$




USA.gov is the U.S. government's official web portal to all federal, state and local government web resources and services.